Roberto Campos

Recruteur - Celta
7 Nov 2027
Dimanche
Processus

Personnalité

Adaptabilité (16) Ambition (11) Controverse (5) Loyauté (3) Pression (7) Professionnalisme (13) Sportivité (8) Tempérament (2)

Profil

Style d'entraînement Démocratique
Diplôme Continental B
Détermination 10
Gestion des joueurs 7
Motivation 14
Discipline 12
Satisfaction professionnelle
100%
Fatigue
0%
Rôle Recruteur
Salaire 35.0K p/s
Contrat 14.03.2028

Performance

Comportement Bon
Efficacité de l'entraînement
41%
Développement des joueurs
45%
Prévention des blessures
65%
Mise en place tactique
60%

Suivi en cours

87
Joueur Club Statut Capacité Confiance Observé Dernière observation Dernier vote
Valentino Massi Sarmiento Actif 96 / 116 40% 4 30.08.2027 -
Facundo Balatti Penarol Actif 100 / 105 40% 1 30.08.2027 -
Teo Rodríguez Pagano San Lorenzo Actif 117 / 132 40% 2 29.08.2027 -
Mirko Bruno Vélez Actif 105 / 105 40% 1 29.08.2027 -
Wilmar Borja La Equidad Actif 103 / 116 40% 2 28.08.2027 -
Felipe Faúndez O'Higgins Actif 104 / 102 40% 1 28.08.2027 -
Pau Cubarsí Barcelona Actif 165 / 176 40% 1 24.08.2027 -
Mbekezeli Mbokazi Chicago Fire Actif 131 / 124 40% 1 19.08.2027 -
Nazareno Roselli Defensa y Justicia Actif 115 / 113 40% 1 19.08.2027 -
Ignacio Isla Unión de Santa Fe Actif 99 / 107 40% 2 15.08.2027 -
Andrej Sestak FK Senica Actif 98 / 132 40% 1 15.08.2027 -
Valente Pierani Estudiantes Actif 108 / 122 40% 3 12.08.2027 -
Santiago Villareal Gimnasia La Plata Actif 102 / 114 40% 2 09.08.2027 -
Gaku Nawata Gamba Osaka Actif 105 / 101 40% 1 09.08.2027 -
Diogo Guzmán Montevideo City Torque Actif 120 / 111 40% 1 06.08.2027 -
Jamal Jimoh-Aloba Aston Villa Actif 113 / 119 40% 1 05.08.2027 -
Bahmed Deuff FC Metz Actif 112 / 116 40% 1 04.08.2027 -
Noah Streit CF Montreal Actif 119 / 127 40% 2 03.08.2027 -
Kaick FC Dallas Actif 97 / 105 40% 1 03.08.2027 -
Yaroslav Matyukhin Alashkert Actif 106 / 123 40% 1 03.08.2027 -
Rabby Nzingoula West Bromwich Albion Actif 121 / 118 40% 1 31.07.2027 -
Joel Canchimbo Barranquilla Actif 106 / 112 40% 1 31.07.2027 -
Martim Cunha Porto Actif 112 / 111 40% 2 28.07.2027 -
Augusto Bando Ascoli Actif 100 / 118 40% 3 28.07.2027 -
Chris Rigg Sunderland Actif 123 / 146 40% 3 26.07.2027 -
Dylan Gorosito Boca Juniors Actif 105 / 117 40% 3 25.07.2027 -
Amir Mohammad Razzaghinia Esteghlal Actif 108 / 127 40% 2 25.07.2027 -
Pyry Mentu HJK Actif 119 / 111 40% 1 24.07.2027 -
Andrés Cuenca Como Actif 100 / 119 40% 1 24.07.2027 -
Aarón Martín Al-Qadisiyah Actif 97 / 119 40% 1 23.07.2027 -
Sergiu Perciun Torino Actif 108 / 107 40% 1 23.07.2027 -
Santiago Daniele Chacarita Juniors Actif 107 / 100 40% 3 20.07.2027 -
Brandon Powell Blackburn Rovers Actif 110 / 120 40% 1 20.07.2027 -
Enzo Tacafred AS Nancy Actif 111 / 119 40% 1 17.07.2027 -
Mateo Aguiar Defensa y Justicia Actif 117 / 112 40% 2 16.07.2027 -
Yaghoub Barage Persepolis Actif 104 / 105 40% 2 16.07.2027 -
Alan Coria Villarreal Actif 114 / 116 40% 2 13.07.2027 -
George Abbott Tottenham Actif 122 / 119 40% 2 13.07.2027 -
Tyrese Hall Tottenham Actif 111 / 127 40% 1 07.07.2027 -
Ibrahim Coulibaly Clermont Foot Actif 116 / 108 40% 1 05.07.2027 -
Mads Bomholt Rosenborg Actif 99 / 112 40% 2 04.07.2027 -
Facundo Herrera Boca Juniors Actif 100 / 103 40% 2 04.07.2027 -
Bung Meng Freimann Luzern Actif 118 / 120 40% 1 03.07.2027 -
Rio Cardines Crystal Palace Actif 105 / 100 40% 1 03.07.2027 -
Juan Morán Godoy Cruz Actif 97 / 110 40% 2 02.07.2027 -
Ezra Mayers West Ham United Actif 125 / 121 40% 1 02.07.2027 -
Sabil Hansen Randers Actif 95 / 111 40% 1 28.06.2027 -
Jarvis Thornton Sheffield Wednesday Actif 91 / 101 40% 2 27.06.2027 -
Malick Yalcouyé Brighton Actif 132 / 143 40% 2 27.06.2027 -
Yasin Özcan Aston Villa Actif 124 / 105 40% 1 26.06.2027 -
Vincent Burlet Cracovia Actif 98 / 128 40% 3 23.06.2027 -
Axel Tape Bayer Leverkusen Actif 122 / 122 40% 1 18.06.2027 -
Bryan Caicedo Leones Actif 108 / 94 40% 1 18.06.2027 -
Gonçalo Sousa Porto Actif 104 / 130 40% 2 15.06.2027 -
Somto Boniface Ipswich Town Actif 108 / 108 40% 1 15.06.2027 -
Ishé Samuels-Smith Chelsea Actif 104 / 132 40% 1 10.06.2027 -
Gorka Gorosabel Real Sociedad Refusé 116 / 114 40% 2 05.06.2027 Plus d'infos
Matías Schulz Unión de Santa Fe Actif 110 / 106 40% 2 04.06.2027 -
Nicolás Rojas Banfield Actif 102 / 98 40% 1 25.01.2027 Plus d'infos
Honest Ahanor Fiorentina Actif 116 / 135 40% 1 25.01.2027 -
Nazareno Kihm Ferro Carril Oeste Actif 106 / 107 40% 1 21.01.2027 -
Lucas Cornejo Estudiantes Actif 100 / 105 40% 1 20.01.2027 -
Bobby Clark Derby County Actif 122 / 125 40% 2 16.01.2027 -
Juan Giménez Athletic Bilbao Actif 111 / 132 40% 2 14.01.2027 -
Santiago Grella Unión de Santa Fe Actif 112 / 119 40% 1 14.01.2027 -
Breno Bidon Corinthians Actif 137 / 134 40% 1 14.01.2027 -
Cam Bragg Southampton Actif 124 / 130 40% 1 10.01.2027 -
Kyriani Sabbe Club Brugge Actif 114 / 123 40% 1 09.01.2027 -
Emirhan Başyiğit Sivasspor Actif 125 / 103 40% 1 08.01.2027 -
Ignacio Perruzzi San Lorenzo Actif 112 / 130 40% 1 07.01.2027 -
Halam Loboa Osasuna Actif 104 / 138 40% 1 07.01.2027 -
Lucas Agazzi Benfica Actif 115 / 117 40% 1 06.01.2027 -
Tristan Degreef Anderlecht Actif 114 / 123 40% 2 05.01.2027 -
Arkaitz Mariezkurrena Real Sociedad Actif 111 / 120 40% 1 04.01.2027 -
Sean Fusire Sheffield Wednesday Actif 89 / 109 40% 1 04.01.2027 -
Alysson Edward Aston Villa Actif 121 / 119 40% 1 31.08.2026 Plus d'infos
Joaquin Seys Club Brugge Actif 127 / 129 40% 1 31.08.2026 Plus d'infos
Ollie Scarles West Ham United Actif 130 / 124 40% 1 26.08.2026 -
Javier Mena Villarreal Actif 121 / 108 40% 1 26.08.2026 -
Milan Roganović Partizan Actif 107 / 116 40% 1 20.08.2026 -
David Mella Deportivo La Coruña Actif 127 / 127 40% 1 17.08.2026 -
Alexander Lyng SonderjyskE Actif 128 / 119 40% 1 16.08.2026 -
Seb Ferdinand Arsenal Actif 99 / 105 40% 1 16.08.2026 -
Axel Frugone Defensor Sporting Actif 110 / 118 40% 1 15.08.2026 -
Thiago Acosta River Plate Actif 112 / 122 40% 1 12.08.2026 -
Kurban Rasulov Dinamo Moscow Actif 81 / 122 40% 1 07.08.2026 -
Lorenzo Torriani AC Milan Actif 103 / 107 40% 1 07.08.2026 -